This is the latest recevied weather packets stored in our database for station/object NW5W-12. If no packets are shown the sender has not sent any weather packets the latest 10 day(s).
| Time | Temp. | Humidity | Pressure | Rain* | Wind** | Luminosity | Snow |
|---|---|---|---|---|---|---|---|
| 1788043440 | 18.89° C | 57% | 1019.4 hPa | 4.83 mm | - | - | - |
| 1788043140 | 18.89° C | 58% | 1019.6 hPa | 4.83 mm | - | - | - |
| 1788042840 | 18.89° C | 56% | 1019.7 hPa | 4.83 mm | - | - | - |
| 1788042540 | 18.89° C | 56% | 1019.6 hPa | 4.83 mm | - | - | - |
| 1788042240 | 18.89° C | 57% | 1019.7 hPa | 4.83 mm | - | - | - |
| 1788041944 | 19.44° C | 56% | 1019.8 hPa | 4.83 mm | - | - | - |
| 1788041640 | 19.44° C | 58% | 1019.8 hPa | 4.83 mm | - | - | - |
| 1788041340 | 19.44° C | 61% | 1019.8 hPa | 4.83 mm | - | - | - |
| 1788041040 | 19.44° C | 59% | 1019.9 hPa | 4.83 mm | - | - | - |
| 1788040740 | 19.44° C | 59% | 1019.8 hPa | 4.83 mm | - | - | - |
| 1788040439 | 19.44° C | 63% | 1019.8 hPa | 4.83 mm | - | - | - |
| 1788040140 | 19.44° C | 64% | 1019.9 hPa | 4.83 mm | - | - | - |
| 1788039840 | 19.44° C | 64% | 1020 hPa | 4.83 mm | - | - | - |
| 1788039540 | 19.44° C | 64% | 1020 hPa | 4.83 mm | - | - | - |
| 1788039240 | 19.44° C | 65% | 1019.9 hPa | 4.83 mm | - | - | - |
| 1788038939 | 18.89° C | 66% | 1019.8 hPa | 4.83 mm | - | - | - |
| 1788038640 | 19.44° C | 68% | 1020.2 hPa | 4.83 mm | - | - | - |
| 1788038340 | 19.44° C | 66% | 1020.3 hPa | 4.83 mm | - | - | - |
| 1788038040 | 19.44° C | 66% | 1020.4 hPa | 4.83 mm | - | - | - |
| 1788037740 | 20° C | 64% | 1020.5 hPa | 4.83 mm | - | - | - |
| 1788037440 | 20° C | 66% | 1020.6 hPa | 4.83 mm | - | - | - |
| 1788037140 | 20° C | 65% | 1020.6 hPa | 4.83 mm | - | - | - |
| 1788036840 | 20° C | 65% | 1020.6 hPa | 4.83 mm | - | - | - |
| 1788036539 | 19.44° C | 64% | 1020.7 hPa | 4.83 mm | - | - | - |
| 1788036239 | 19.44° C | 64% | 1020.9 hPa | 4.83 mm | - | - | - |
* Rain since midnight (hover to see other rain measurements)
** Current wind speed in m/s (hover to see current wind gust speed)